GOES 17 (43226 NORAD) Tracking and Keplerian Element Data

This shows tracking and keplerian element data for the satellite.

Feedback or suggestion? Click here.




ElementValue
Catalog43226
NameGOES 17
Epoch Orbit2862
Epoch Day354.1761417
Epoch Year2025
RAAN89.1576
Inclination0.4757
Eccentricity0.0003085
Argument of Perigee191.4696
Mean Anonmoly142.2938
Mean Motion1.00270789
Decay Rate-1.59E-06
L11 43226U 18022A 25354.17614170 -.00000159 00000+0 00000+0 0 9990
L22 43226 0.4757 89.1576 0003085 191.4696 142.2938 1.00270789 28621



Live tracking and technical data element details for GOES 17 (NORAD 43226). GOES 17 can be tracked NOW for your location showing map with azimuth and elevation plus other details from your city location.







IsCatalogInMostPopularTable: catalog: 43226, numindb: 1295
Update: records affected: 1



GetName: 43226 GOES 17

Hit Count: updated at: Mon, 18 May 2026 09:22:46 GMT